Regional Weather Roundup
Issued by NWS

Home | Current Version | Previous Version | Text Only | Print | Product List | Glossary Off
Versions: 1 2 3 4 5 6 7 8 9 10 11 12 13 14 15 16 17 18 19 20 21 22 23 24 25 26 27 28 29 30 31 32 33 34 35 36 37 38 39 40 41 42 43 44 45 46 47 48 49 50

000
ASUS43 KLOT 101300
RWRIL

ILLINOIS REGIONAL WEATHER ROUNDUP
NATIONAL WEATHER SERVICE CHICAGO/ROMEOVILLE IL
800 AM CDT THU JUL 10 2014

NOTE: "FAIR" INDICATES FEW OR NO CLOUDS BELOW 12,000 FEET WITH NO
SIGNIFICANT WEATHER AND/OR OBSTRUCTIONS TO VISIBILITY.

* THESE STATIONS ARE NOT UNDER NWS QUALITY CONTROL. THEY ALSO MAY NOT
  REPORT WEATHER SUCH AS PRECIPITATION OR FOG.

ILZ001-002-007-009-015-016-024-101400-
NORTHWEST ILLINOIS

CITY           SKY/WX    TMP DP  RH WIND       PRES   REMARKS
MOLINE         SUNNY     65  58  78 E3        30.14R
STERLING*      PTSUNNY   66  57  72 S5        30.15R
$$

ILZ003-004-008-010-011-017-018-101400-
NORTH CENTRAL ILLINOIS

CITY           SKY/WX    TMP DP  RH WIND       PRES   REMARKS
ROCKFORD       MOSUNNY   64  57  78 S3        30.17R
FREEPORT*      MOSUNNY   61  57  88 CALM      30.17R
$$

ILZ005-006-012>014-019>023-101400-
NORTHEAST ILLINOIS

CITY           SKY/WX    TMP DP  RH WIND       PRES   REMARKS
CHICAGO-OHARE  MOSUNNY   69  56  62 CALM      30.14S
CHICAGO-MIDWAY MOSUNNY   70  60  70 CALM      30.14R
AURORA         SUNNY     66  58  75 CALM      30.16R
WAUKEGAN       SUNNY     64  59  83 E5        30.15S
DUPAGE AIRPORT SUNNY     68  58  70 CALM      30.15R HAZE
WHEELING       SUNNY     68  59  73 CALM      30.16R
NORTHERLY ISL    N/A     67  61  81 NE5         N/A
$$

LMZ740>746-101400-
SOUTHERN LAKE MICHIGAN

STATION/POSITION SKY/WX   TEMP    WIND        PRES    VSBY  WAVE
                          AIR SEA DIR/SP/G                  HT/PER
                          (F)     (DEG/KT/KT) (MB)    (MI)  (FT/S)
SOUTHERN BUOY              57 55   40/  6/  6 1021.2R         0
WAUKEGAN HARBOR            61      40/  4/  5 1022.0S
HARRISON CRIB              65      70/  5/  6   N/A
BURNHAM HARBOR             67      50/  4/  5   N/A
CALUMET HARBOR             67      40/  4/  6 1021.4R
MICHIGAN CITY              62     100/  3/  4   N/A
$$

ILZ025>027-034>036-040-047-049-050-058-095>099-101400-
WEST-CENTRAL ILLINOIS

CITY           SKY/WX    TMP DP  RH WIND       PRES   REMARKS
QUINCY         SUNNY     68  59  73 SE6       30.15R
MACOMB*        SUNNY     65  62  89 S3        30.16R
$$

ILZ028>032-037-038-041>044-048-051>054-059>061-101400-
CENTRAL ILLINOIS

CITY           SKY/WX    TMP DP  RH WIND       PRES   REMARKS
DECATUR        SUNNY     66  59  78 E5        30.15R
PEORIA         MOSUNNY   69  56  62 SE5       30.15R
SPRINGFIELD    SUNNY     68  60  75 S5        30.15R
TAYLORVILLE    NOT AVBL
$$

ILZ033-039-045-046-055>057-062-063-101400-
EAST-CENTRAL ILLINOIS

CITY           SKY/WX    TMP DP  RH WIND       PRES   REMARKS
CHAMPAIGN      SUNNY     67  58  72 NE9       30.15R
MATTOON        SUNNY     66  59  78 E6        30.14R
$$

ILZ079-100>102-101400-
SOUTHWEST ILLINOIS

CITY           SKY/WX    TMP DP  RH WIND       PRES   REMARKS
ALTON          SUNNY     68  64  88 N6        30.14R
CAHOKIA*       MOSUNNY   68  61  78 CALM      30.13R
SPARTA*        SUNNY     64  61  88 CALM      30.13R
$$

ILZ064>066-069>071-074>076-080>082-084>086-088>090-092>094-101400-
SOUTH-CENTRAL ILLINOIS

CITY           SKY/WX    TMP DP  RH WIND       PRES   REMARKS
CARBONDALE     MOSUNNY   70  63  78 CALM      30.11R
MARION         MOSUNNY   70  64  83 NE6       30.12R
MT. VERNON     SUNNY     68  61  77 NE3       30.13R
SALEM*         SUNNY     70  62  76 CALM      30.13R
$$

ILZ067-068-072-073-078-083-087-091-101400-
SOUTHEAST ILLINOIS

CITY           SKY/WX    TMP DP  RH WIND       PRES   REMARKS
HARRISBURG*    SUNNY     70  62  76 NE3       30.12R
$$

ABBREVIATIONS USED IN REMARKS
   TC - TEMPERATURE IN CELSIUS
  WCI - WIND CHILL INDEX
   HX - HEAT INDEX
  VSB - VISIBILITY
$$




USA.gov is the U.S. government's official web portal to all federal, state and local government web resources and services.